{"data":{"norad_id":64671,"epoch":"2026-05-25T02:43:38.710272Z","epoch_age_seconds":64581,"freshness":"FRESH","line1":"1 64671U 25139H   26145.11364248  .00019883  00000+0  59787-3 0  9998","line2":"2 64671  53.1577 131.4444 0001040  55.3498 304.7602 15.34409038 52055","mean_motion":15.34409038,"eccentricity":0.000104,"inclination_deg":53.1577,"raan_deg":131.4444,"arg_perigee_deg":55.3498,"mean_anomaly_deg":304.7602,"bstar":0.00059787,"rev_number":5205,"period_min":93.847205297809,"perigee_km":461.96493290703,"apogee_km":463.38782208955,"semimajor_km":6840.8133774983,"source":"CELESTRAK","updated_at":"2026-05-25T13:38:20.503065Z"}}